RH
56 58 59 57 53 49 49 47 43 40 37 34 33 32 32 33 34 36 36 35 34 32 31 31 29 27 27 28 27 26 27 27 28 29 28 29 30 31 32 34 37 38 40 40 40 39 38 38 38 39 41 42 44 46 49 52 55 59 64 68 75 82 87 90 90 90 91 91 91 89 81 77 79 82 87 92 92 89 90 87 87 89 82 72 71
55 57 58 57 53 49 48 48 45 41 38 35 33 33 34 35 37 37 37 36 35 34 33 33 32 31 29 28 27 26 27 28 28 29 30 30 31 33 34 36 39 42 44 44 43 40 38 37 37 38 38 39 40 41 43 47 50 54 60 66 72 76 83 90 92 93 94 93 93 93 89 84 80 80 87 91 90 89 89 87 87 89 83 74 72
59 59 59 58 53 47 48 49 47 41 37 36 34 34 35 37 39 39 38 37 37 37 37 36 35 34 31 29 26 25 27 28 28 29 31 33 34 36 36 39 43 45 46 47 44 42 41 41 42 44 44 43 43 42 43 44 47 51 55 60 64 70 79 86 92 94 96 96 96 96 94 91 84 81 85 88 88 89 87 85 86 88 85 77 75
61 61 59 57 52 48 48 50 48 42 38 36 36 36 35 36 39 41 40 40 39 40 40 40 40 37 34 30 27 26 28 29 29 30 32 34 36 37 40 43 44 47 53 56 52 49 50 52 52 53 53 52 50 48 47 46 47 49 53 56 59 68 77 84 89 93 95 97 97 98 97 95 90 85 87 88 89 90 88 87 86 86 85 80 77
59 60 59 56 53 49 47 49 49 46 42 40 38 37 35 34 38 40 40 40 40 41 41 41 41 40 37 33 29 29 29 30 31 31 33 34 35 38 41 44 50 59 66 65 60 57 57 56 56 57 58 57 56 55 53 51 50 49 51 55 57 64 75 83 87 90 93 96 97 97 97 95 93 91 91 91 91 91 90 89 87 85 85 82 78
55 59 59 57 55 51 46 47 51 49 45 43 40 38 37 36 37 39 39 40 40 41 41 41 41 41 39 37 34 32 32 32 32 33 36 37 37 39 44 52 60 66 65 62 62 61 57 53 52 54 56 56 57 58 58 57 55 52 49 52 54 60 74 85 88 91 94 95 96 96 95 93 92 93 93 93 94 92 91 90 87 85 85 83 79
54 57 58 57 55 53 49 50 55 53 46 43 40 39 39 38 38 39 39 40 40 41 41 41 42 41 40 39 37 36 36 35 35 37 40 41 42 43 47 56 61 62 62 64 65 60 55 52 50 51 52 52 53 56 58 58 59 57 52 52 54 58 72 85 89 92 95 95 95 96 95 94 92 92 92 93 95 94 92 90 88 85 85 83 78
55 55 56 57 57 58 55 56 60 54 45 42 41 41 43 40 39 40 40 40 40 40 40 40 40 39 38 37 36 37 39 39 39 41 43 44 45 45 45 52 60 66 67 64 60 55 53 53 52 50 48 48 50 51 54 56 58 60 57 55 55 58 69 84 89 90 93 95 96 96 96 96 94 92 92 91 91 90 89 89 88 86 86 84 79
56 55 56 56 58 63 60 58 60 53 47 47 45 45 47 43 41 40 40 41 40 39 38 37 37 38 39 39 38 39 41 42 42 44 45 45 45 44 43 47 55 61 59 54 51 49 49 50 50 49 47 47 48 48 50 52 55 58 59 57 55 60 70 82 91 92 92 95 96 97 97 96 96 94 93 92 88 86 85 85 86 86 87 85 79
55 56 59 56 58 64 64 61 61 55 52 53 48 46 47 44 41 40 40 40 40 39 39 39 39 39 40 41 41 41 42 44 45 46 46 45 43 42 42 43 45 48 50 48 47 45 47 48 48 48 48 48 47 47 48 51 53 55 58 60 61 66 73 81 91 94 93 94 96 98 98 96 96 94 93 93 90 86 84 82 83 83 84 84 80
56 58 61 58 56 61 64 65 64 59 53 50 47 45 44 43 42 41 40 40 41 41 41 41 42 43 43 44 44 44 45 46 46 45 44 42 41 40 40 41 42 44 47 47 46 47 48 47 46 46 47 49 50 50 52 54 56 55 57 63 66 68 73 79 88 93 94 95 96 98 97 95 94 93 91 91 89 87 85 82 83 83 82 81 80
60 60 62 61 58 60 63 65 66 60 52 46 45 46 45 45 44 43 43 44 44 45 45 46 47 48 48 48 48 47 46 46 45 44 41 39 39 39 39 42 43 45 46 46 46 46 46 45 46 48 50 54 55 56 57 56 58 60 61 66 69 69 71 76 84 91 94 96 97 98 97 97 95 93 91 90 89 88 85 82 83 83 84 82 80
63 61 63 64 62 63 63 64 64 58 51 48 47 46 46 46 45 45 46 47 48 48 49 50 50 50 49 47 47 47 46 45 44 42 41 40 39 40 41 42 44 45 45 45 44 43 44 45 45 48 52 56 58 60 60 57 59 64 66 70 74 73 72 75 82 90 94 96 97 98 97 97 96 94 93 92 91 88 85 83 82 82 84 82 79
64 64 64 63 63 64 62 61 61 58 54 52 49 46 45 45 46 46 48 49 49 50 51 51 49 47 45 44 44 44 44 44 43 42 41 40 40 41 42 42 43 44 43 42 42 42 43 42 43 47 52 56 58 60 63 62 63 66 69 72 76 78 80 81 84 91 94 94 96 98 97 97 96 93 92 91 89 87 85 83 82 83 83 80 77
62 62 63 64 64 64 62 58 60 60 57 54 49 44 43 45 47 47 48 48 49 51 51 49 46 44 43 43 42 41 42 42 41 41 40 40 40 42 42 42 42 41 41 40 40 40 41 42 46 52 57 60 60 62 66 67 66 67 70 71 73 77 80 81 86 91 93 92 94 97 97 96 95 92 90 89 88 86 84 82 80 82 82 80 77
59 58 60 65 66 64 62 60 62 63 58 52 47 43 44 46 48 47 47 48 49 50 48 46 45 44 44 43 41 41 41 41 40 39 39 40 40 41 40 40 40 40 39 39 38 40 44 48 52 58 64 66 66 68 69 69 68 67 70 72 73 74 71 74 84 90 91 91 92 95 95 95 95 94 91 90 88 87 85 81 78 79 79 80 80
61 60 59 64 66 64 62 62 62 61 55 49 45 45 46 47 47 47 47 48 48 47 45 44 45 45 44 42 41 40 40 39 39 38 39 40 39 39 39 39 38 38 38 38 40 43 48 51 55 62 69 72 73 74 72 70 71 71 70 72 75 73 69 71 79 85 89 91 90 92 94 94 95 94 92 91 89 88 86 82 79 79 79 78 79
62 65 62 63 65 64 62 61 58 53 50 47 47 47 47 46 46 47 47 47 46 45 45 45 45 44 43 42 41 40 40 40 39 39 40 40 39 40 39 38 36 37 38 40 42 46 48 51 55 64 74 77 76 76 72 70 73 72 71 73 75 73 70 71 76 80 86 88 87 87 90 92 93 93 92 91 89 89 88 84 83 83 81 79 78
63 67 66 64 64 63 61 57 52 49 48 49 48 46 45 45 46 46 47 46 45 45 46 46 45 44 43 42 42 41 40 39 40 40 40 38 39 39 37 35 34 36 39 41 43 45 47 48 55 67 77 77 75 76 75 71 72 74 73 74 76 75 71 70 74 78 82 85 85 85 86 88 91 93 92 90 89 90 90 88 87 86 83 81 79
64 67 66 63 62 61 56 52 49 48 48 49 47 45 46 47 47 48 49 48 47 47 46 46 45 44 43 42 42 40 38 37 38 38 36 36 37 37 36 35 35 37 40 42 42 45 46 48 57 69 77 76 73 74 76 75 74 75 75 73 73 73 70 68 73 78 81 83 84 85 86 87 90 93 92 91 92 92 90 89 89 88 85 83 82
65 65 63 60 60 58 54 50 48 48 48 48 46 45 47 49 49 50 50 49 48 47 46 45 44 43 43 42 40 38 38 39 39 38 37 38 39 38 37 36 36 38 40 41 42 45 47 48 57 68 76 76 72 71 74 74 74 74 74 73 71 71 71 70 73 78 80 81 83 85 88 89 89 92 94 93 94 93 91 90 91 91 89 87 84
68 65 61 59 58 56 52 49 48 49 49 47 46 46 47 48 49 50 49 49 49 47 46 44 42 42 42 41 40 39 40 41 40 39 39 40 39 38 37 37 37 38 38 39 42 46 47 48 55 66 74 76 72 70 71 71 71 72 71 71 70 71 73 73 74 77 78 78 82 87 90 90 90 92 95 95 94 94 94 94 95 93 92 91 87
70 66 61 60 59 55 52 50 50 49 48 47 46 46 47 48 49 49 49 50 49 48 47 45 44 44 44 43 42 41 41 40 40 39 39 38 38 37 35 36 37 36 36 38 42 45 47 48 53 62 72 75 72 70 71 71 71 72 74 75 75 76 77 76 76 79 79 79 82 87 89 90 92 94 96 95 95 96 95 93 93 91 90 91 89
69 65 61 60 59 55 51 50 50 49 48 48 47 47 48 49 51 52 51 51 50 49 48 46 46 46 46 45 43 42 41 40 40 38 36 36 37 35 34 33 34 34 35 37 41 44 47 49 51 59 70 76 73 69 70 74 76 77 78 77 79 81 79 77 79 81 81 81 83 86 88 89 92 93 94 95 95 95 92 89 89 90 90 91 90
67 65 62 60 58 53 50 51 51 49 48 48 48 48 49 51 52 52 51 50 50 50 48 47 48 47 46 46 43 41 41 40 39 36 35 35 34 33 33 33 32 32 33 35 38 42 46 48 50 58 70 77 76 72 71 74 77 80 80 77 79 82 80 80 84 84 83 83 83 84 85 87 91 92 92 94 94 92 91 89 89 91 92 92 90
68 66 64 61 56 51 50 51 51 50 49 49 49 50 50 51 51 51 50 50 51 51 49 48 48 47 47 45 41 39 38 36 36 35 35 34 33 32 33 32 31 32 32 33 36 39 44 47 49 55 68 76 78 77 75 75 78 81 83 82 82 85 83 84 88 86 84 84 83 83 83 86 90 91 91 92 94 93 92 91 90 92 93 92 90
68 65 61 59 56 51 52 53 52 50 49 49 51 51 51 50 50 50 50 52 53 52 50 48 48 47 46 43 39 36 35 35 35 36 35 33 31 31 31 31 30 32 32 32 33 37 42 47 48 52 62 70 75 78 79 79 79 81 84 84 84 85 85 86 87 87 86 86 86 86 87 88 89 89 89 91 93 93 92 91 91 92 92 91 90
67 64 61 59 57 55 56 56 53 51 51 51 51 51 50 50 51 52 53 53 52 51 49 48 47 47 45 42 39 37 36 36 36 35 32 31 30 31 31 30 30 32 34 33 33 37 41 47 50 50 55 63 69 75 81 83 84 86 86 86 87 86 86 86 87 88 87 87 89 89 89 89 89 89 89 89 90 90 89 89 89 90 91 91 92
68 68 65 62 60 59 59 58 55 53 52 52 51 51 51 52 53 55 54 53 51 49 48 47 46 46 45 42 41 39 37 36 35 33 31 30 30 31 32 32 31 33 36 35 33 35 40 46 50 50 52 59 66 73 79 83 86 89 90 89 90 89 88 88 89 89 89 89 90 90 89 90 91 91 90 89 89 89 89 88 88 89 90 92 93
71 72 71 68 66 64 61 58 56 54 53 52 52 53 54 55 56 55 54 51 48 46 46 47 47 46 45 44 42 39 37 36 34 33 32 32 33 34 35 34 34 34 35 35 33 34 38 43 48 50 51 58 66 72 78 83 86 89 90 90 91 89 89 89 90 91 90 90 92 91 91 92 92 92 93 92 90 90 91 92 90 88 89 90 91
74 75 74 72 69 66 62 58 55 55 54 53 54 55 57 58 58 55 53 50 47 45 46 47 47 47 46 46 43 39 38 37 35 35 36 37 38 38 37 36 35 34 35 34 34 36 39 42 47 50 51 56 66 72 76 83 88 89 90 90 90 89 89 90 90 91 92 92 93 92 92 93 93 94 95 94 92 91 92 94 94 93 92 91 89
75 76 74 72 69 65 61 58 56 55 55 55 57 59 60 61 60 56 53 50 47 46 48 48 48 48 47 47 44 41 40 39 38 39 40 40 40 39 37 35 34 34 35 35 36 38 42 45 49 52 53 58 67 73 77 85 91 92 91 91 91 91 91 92 92 92 94 95 95 94 94 94 95 95 96 96 95 93 92 95 96 95 95 93 91
77 77 73 71 69 65 62 60 58 57 57 59 62 63 63 63 60 55 51 49 47 49 51 50 49 49 48 47 44 42 43 43 42 43 42 41 40 38 36 35 34 34 36 39 41 43 46 48 51 53 55 59 67 75 81 88 91 92 94 93 93 93 93 93 94 95 96 96 95 95 94 93 95 96 97 97 97 94 93 96 97 95 94 94 93
80 80 75 72 69 67 65 63 61 60 61 63 64 63 62 61 57 52 49 49 50 52 53 52 51 50 49 47 45 45 46 46 46 45 43 40 39 37 36 36 35 36 40 44 45 46 50 53 55 56 57 60 66 74 82 87 87 89 92 94 94 94 94 94 94 95 96 96 95 94 94 95 96 96 96 96 97 96 96 96 97 96 95 94 93
81 80 78 75 71 69 67 65 63 62 62 62 62 60 58 56 53 52 51 51 52 53 54 55 54 52 50 48 47 48 50 49 47 45 43 41 40 38 37 37 37 39 44 47 47 48 53 57 58 58 58 60 64 69 75 83 87 88 90 92 95 97 97 97 97 97 97 97 96 96 96 97 97 97 97 96 95 97 97 97 97 96 95 94 94
82 81 79 75 70 67 66 64 63 61 60 59 58 57 56 55 54 53 53 53 54 55 56 57 56 55 53 51 50 51 52 51 49 46 44 44 42 41 40 40 40 42 45 48 49 49 53 58 60 59 58 59 62 65 71 80 87 87 84 83 87 93 96 97 98 99 99 99 98 98 98 98 98 98 98 98 97 97 97 98 98 97 95 95 95
80 79 76 70 67 67 66 64 62 60 58 56 56 57 58 57 56 55 55 56 57 58 58 59 59 58 55 54 53 53 53 53 51 49 47 46 45 45 45 45 44 46 48 51 52 52 53 57 60 60 60 61 61 64 70 78 83 81 78 76 79 87 94 96 97 99 100 99 99 99 99 99 99 99 99 100 100 98 97 98 99 97 96 95 93
76 74 70 67 67 67 66 63 60 58 57 57 58 61 61 60 57 56 57 58 60 61 62 62 62 60 58 56 55 54 54 54 53 52 51 51 50 51 52 52 50 50 51 53 54 54 55 58 60 60 61 61 61 62 65 70 74 72 72 74 75 79 87 93 96 97 98 97 97 98 99 98 99 100 100 100 100 99 99 99 98 97 96 95 93
75 71 68 66 67 66 64 63 61 60 60 61 62 63 62 61 60 59 59 61 63 64 65 64 65 63 60 59 58 56 55 54 55 56 57 56 57 58 59 58 55 54 54 55 56 57 57 59 58 58 59 60 61 61 62 65 67 66 67 70 73 74 78 85 92 95 95 94 95 98 100 100 100 100 100 100 99 99 99 99 98 97 96 95 94
75 72 69 67 68 67 66 67 66 65 65 64 65 64 63 63 62 61 62 64 65 67 66 66 66 65 62 60 60 58 58 57 58 60 61 61 62 63 63 61 59 58 57 56 58 59 59 59 58 58 60 61 62 62 63 64 65 64 64 65 68 71 74 78 84 90 93 94 95 98 99 98 97 98 98 99 98 98 99 99 99 98 97 96 96
76 75 73 71 70 71 71 71 70 69 69 69 68 67 66 65 63 61 62 63 64 67 67 67 67 66 64 62 62 61 61 61 61 62 63 65 66 66 65 63 61 61 59 57 58 59 60 60 59 59 61 62 62 63 64 64 65 66 66 66 66 70 73 74 77 81 87 91 94 97 98 96 95 95 95 97 98 98 98 98 97 97 97 97 96
77 76 75 73 73 74 74 73 72 72 71 71 69 67 65 63 61 60 61 62 64 67 70 70 69 68 67 65 64 63 63 64 64 64 66 69 71 69 67 64 61 61 60 59 59 59 60 61 61 62 62 62 62 63 64 63 63 63 65 66 66 68 69 70 71 76 82 87 90 93 96 96 94 93 93 95 97 97 96 97 97 97 98 97 96
77 77 77 76 76 76 74 73 72 70 68 66 64 63 62 61 60 60 60 61 65 69 70 70 70 70 69 68 66 66 66 67 67 68 69 73 74 72 69 67 64 62 61 61 61 61 62 63 63 63 63 62 63 63 63 62 62 61 62 64 65 66 66 66 68 71 76 81 84 87 90 92 92 92 93 95 96 94 93 95 97 97 97 97 96
78 79 79 78 76 75 74 73 72 70 68 66 65 64 64 63 61 60 60 62 67 70 70 69 69 69 69 69 70 70 70 70 70 71 72 75 76 75 72 69 67 64 63 64 64 64 64 65 65 64 63 62 62 62 61 62 62 62 62 63 65 66 66 66 67 69 71 73 76 78 81 84 88 90 93 94 94 93 93 95 96 95 94 94 95
80 80 79 77 75 74 75 76 75 73 71 69 66 64 63 62 61 60 60 62 65 67 67 68 69 69 70 71 72 73 73 72 72 73 75 77 76 74 71 69 68 66 65 66 67 67 66 66 65 64 64 63 63 62 61 62 62 63 63 64 65 65 65 66 67 68 69 70 71 73 74 76 78 81 85 87 87 88 89 91 93 93 93 93 93
81 81 79 76 74 74 74 75 75 74 72 69 67 64 64 63 62 60 58 58 59 61 64 67 70 71 71 71 71 72 72 72 72 72 74 74 71 68 66 66 65 63 63 63 64 65 65 65 65 64 64 64 63 62 61 61 61 61 61 61 62 63 64 65 65 66 66 66 67 69 70 71 72 73 75 77 78 80 83 86 88 89 90 91 92
80 78 76 74 73 74 73 72 72 72 72 71 69 67 66 65 63 61 60 60 62 64 65 67 68 69 69 69 71 72 72 72 71 70 69 66 64 62 61 61 60 58 57 57 57 59 61 62 62 61 59 58 57 56 56 55 55 54 54 53 54 55 56 57 58 60 60 60 61 62 63 64 65 66 67 68 69 72 75 79 81 83 84 84 85
76 75 75 74 75 74 72 71 71 72 73 74 72 69 67 65 65 66 67 68 68 68 66 65 65 65 67 70 72 72 71 69 68 66 64 62 60 59 57 56 55 54 52 52 52 53 54 53 53 51 50 48 49 49 49 48 47 46 45 43 43 43 43 44 46 47 47 47 48 48 49 50 51 52 53 55 57 59 62 66 71 75 78 81 83
73 73 74 73 73 73 71 71 73 73 73 73 72 69 68 68 69 71 72 72 71 70 68 67 66 65 66 66 67 66 65 64 62 61 60 58 56 54 52 51 51 50 49 48 47 48 47 45 43 43 42 42 42 42 41 40 38 37 36 35 33 32 31 31 31 31 30 30 30 30 31 31 32 34 35 37 40 43 46 49 54 59 64 69 75
74 73 73 72 71 71 70 71 74 75 74 73 71 69 70 73 74 74 73 74 75 75 73 71 68 66 64 62 60 58 56 55 54 53 52 51 50 47 45 44 44 43 41 39 38 38 38 34 32 32 33 33 33 32 31 30 28 28 27 26 25 24 23 22 21 20 20 20 20 21 21 21 22 22 24 26 28 30 33 35 38 42 45 49 54
71 70 70 68 67 68 70 72 75 75 74 72 70 70 72 76 77 75 73 74 74 73 70 67 64 62 60 58 56 55 53 52 51 48 45 43 41 39 37 36 34 32 30 28 27 27 27 26 24 24 26 27 27 27 25 23 22 21 21 20 20 19 19 18 17 15 14 15 15 16 16 17 17 18 19 20 22 23 26 28 29 31 33 36 38